Thedford, NE

9:00 PM CDT on April 30, 2017 (GMT -0500)
Thedford

Weather History for KTIF - February, 2014

Change the Weather History Date:

Wednesday, February 12, 2014

  Actual Average (KANW) Record (KANW)
Temperature  
Mean Temperature 30 °F -  
Max Temperature 37 °F 38 °F 50 °F (1998)
Min Temperature 24 °F 18 °F -7 °F (2008)
Degree Days  
Heating Degree Days 34    
Moisture  
Dew Point 25 °F    
Average Humidity 73    
Maximum Humidity 86    
Minimum Humidity 59    
Precipitation  
Precipitation 0.00 in - - ()
Sea Level Pressure  
Sea Level Pressure 29.92 in    
Wind  
Wind Speed 14 mph (WSW)    
Max Wind Speed 29 mph    
Max Gust Speed 40 mph    
Visibility 10 miles    
Events      
Averages and records for this station are not official NWS values.
T = Trace of Precipitation, MM = Missing Value Source: NWS Daily Summary

Daily Weather History Graph

Daily Weather History Graph

Search for Another Location

Airport or City:

Trip Planner

Search our weather history database for the weather conditions in past years. The results will help you decide how hot, cold, wet, or windy it might be!

Date:

Astronomy

Feb. 12, 2014 Rise Set
Actual Time 7:42 AM CST 6:11 PM CST
Civil Twilight 7:13 AM CST 6:40 PM CST
Nautical Twilight 6:40 AM CST 7:13 PM CST
Astronomical Twilight 6:08 AM CST 7:45 PM CST
Moon 4:26 PM CST (2/12) 6:00 AM CST (2/12)
Length of Visible Light 11h 27m
Length of Day
10h 29m
Waxing Gibbous, 95% of the Moon is Illuminated
Feb 12
Waxing Gibbous
Feb 14
Full
Feb 22
Last Quarter
Mar 1
New
Mar 8
First Quarter

Hourly Weather History & Observations

Time (CST) Temp. Windchill Dew Point Humidity Pressure Visibility Wind Dir Wind Speed Gust Speed Precip Events Conditions
12:15 AM 34.5 °F 26.2 °F 27.3 °F 75% 29.92 in 10.0 mi NW 11.5 mph - N/A   Clear
12:35 AM 35.6 °F 25.5 °F 28.4 °F 75% 29.94 in 10.0 mi NW 17.3 mph 21.9 mph N/A   Clear
12:55 AM 34.9 °F 24.6 °F 28.6 °F 78% 29.94 in 10.0 mi NNW 17.3 mph 24.2 mph N/A   Clear
1:15 AM 34.2 °F 24.8 °F 28.4 °F 79% 29.96 in 10.0 mi NW 13.8 mph 23.0 mph N/A   Clear
1:35 AM 33.3 °F 25.1 °F 27.7 °F 80% 29.96 in 10.0 mi NW 10.4 mph - N/A   Clear
1:55 AM 33.3 °F 22.8 °F 27.9 °F 81% 29.97 in 10.0 mi NW 16.1 mph 23.0 mph N/A   Scattered Clouds
2:15 AM 35.6 °F 24.2 °F 29.3 °F 78% 29.98 in 10.0 mi NNW 21.9 mph 28.8 mph N/A   Overcast
2:35 AM 33.8 °F 20.3 °F 28.9 °F 82% 30.01 in 10.0 mi NNW 28.8 mph 40.3 mph N/A   Overcast
2:55 AM 31.3 °F 17.9 °F 25.7 °F 80% 30.03 in 10.0 mi NNW 24.2 mph 35.7 mph N/A   Overcast
3:15 AM 29.8 °F 18.0 °F 24.1 °F 79% 30.04 in 10.0 mi NNW 17.3 mph 31.1 mph N/A   Overcast
3:35 AM 28.9 °F 16.1 °F 23.5 °F 80% 30.05 in 10.0 mi NNW 19.6 mph 27.6 mph N/A   Overcast
3:55 AM 29.1 °F 17.5 °F 23.7 °F 80% 30.05 in 10.0 mi NNW 16.1 mph 19.6 mph N/A   Overcast
4:15 AM 29.3 °F 18.6 °F 24.3 °F 81% 30.06 in 10.0 mi NNW 13.8 mph 23.0 mph N/A   Overcast
4:35 AM 29.3 °F 17.7 °F 23.9 °F 80% 30.07 in 10.0 mi NNW 16.1 mph 27.6 mph N/A   Overcast
4:55 AM 28.9 °F 17.7 °F 23.9 °F 81% 30.08 in 10.0 mi NNW 15.0 mph 18.4 mph N/A   Overcast
5:15 AM 28.8 °F 17.9 °F 23.4 °F 80% 30.09 in 10.0 mi NNW 13.8 mph 23.0 mph N/A   Overcast
5:35 AM 28.4 °F 16.2 °F 23.0 °F 80% 30.10 in 10.0 mi NNW 17.3 mph 21.9 mph N/A   Overcast
5:55 AM 27.5 °F 15.0 °F 22.3 °F 81% 30.09 in 10.0 mi NNW 17.3 mph 23.0 mph N/A   Overcast
6:15 AM 27.5 °F 16.3 °F 22.6 °F 82% 30.10 in 10.0 mi North 13.8 mph 18.4 mph N/A   Overcast
6:35 AM 27.5 °F 18.6 °F 22.6 °F 82% 30.10 in 10.0 mi NNW 9.2 mph - N/A   Overcast
6:55 AM 27.5 °F 18.6 °F 22.8 °F 83% 30.10 in 10.0 mi NNW 9.2 mph - N/A   Overcast
7:15 AM 27.3 °F 17.1 °F 22.8 °F 83% 30.10 in 10.0 mi NNW 11.5 mph - N/A   Overcast
7:35 AM 27.3 °F 17.1 °F 22.8 °F 83% 30.10 in 10.0 mi NNW 11.5 mph 17.3 mph N/A   Overcast
7:55 AM 26.4 °F 20.9 °F 21.9 °F 83% 30.10 in 10.0 mi NW 4.6 mph - N/A   Mostly Cloudy
8:15 AM 24.1 °F 19.7 °F 20.5 °F 86% 30.10 in 10.0 mi NW 3.5 mph - N/A   Scattered Clouds
8:35 AM 25.7 °F 21.5 °F 21.9 °F 86% 30.10 in 10.0 mi WNW 3.5 mph - N/A   Mostly Cloudy
8:55 AM 26.6 °F 22.6 °F 22.1 °F 83% 30.09 in 10.0 mi WNW 3.5 mph - N/A   Overcast
9:15 AM 27.3 °F 20.9 °F 22.6 °F 83% 30.09 in 10.0 mi West 5.8 mph - N/A   Overcast
9:35 AM 27.5 °F 21.1 °F 22.8 °F 83% 30.08 in 10.0 mi WNW 5.8 mph - N/A   Overcast
9:55 AM 28.4 °F 22.2 °F 23.2 °F 81% 30.08 in 10.0 mi West 5.8 mph - N/A   Overcast
10:15 AM 28.0 °F 24.2 °F 23.0 °F 81% 30.08 in 10.0 mi WNW 3.5 mph - N/A   Overcast
10:35 AM 29.5 °F 23.4 °F 23.4 °F 78% 30.08 in 10.0 mi West 5.8 mph - N/A   Mostly Cloudy
10:55 AM 30.9 °F 25.2 °F 23.9 °F 75% 30.07 in 10.0 mi West 5.8 mph - N/A   Scattered Clouds
11:15 AM 31.8 °F 25.4 °F 24.1 °F 73% 30.07 in 10.0 mi WSW 6.9 mph - N/A   Clear
11:35 AM 32.4 °F 25.3 °F 24.3 °F 72% 30.06 in 10.0 mi WSW 8.1 mph - N/A   Clear
11:55 AM 33.8 °F 29.6 °F 24.1 °F 68% 30.04 in 10.0 mi WSW 4.6 mph - N/A   Clear
12:15 PM 34.3 °F 27.7 °F 23.9 °F 66% 30.03 in 10.0 mi SW 8.1 mph - N/A   Clear
12:35 PM 35.2 °F 29.5 °F 24.4 °F 65% 29.98 in 10.0 mi South 6.9 mph - N/A   Clear
12:55 PM 35.8 °F 30.1 °F 23.9 °F 62% 29.96 in 10.0 mi South 6.9 mph - N/A   Clear
1:15 PM 35.6 °F 28.6 °F 24.1 °F 63% 29.96 in 10.0 mi SSW 9.2 mph - N/A   Clear
1:35 PM 36.0 °F 29.0 °F 24.6 °F 63% 29.95 in 10.0 mi SSW 9.2 mph - N/A   Clear
1:55 PM 36.0 °F 29.0 °F 24.8 °F 64% 29.92 in 10.0 mi South 9.2 mph - N/A   Clear
2:15 PM 36.0 °F 27.5 °F 24.3 °F 63% 29.91 in 10.0 mi South 12.7 mph - N/A   Clear
2:35 PM 35.6 °F 26.2 °F 24.4 °F 64% 29.89 in 10.0 mi SSW 15.0 mph 18.4 mph N/A   Clear
2:55 PM 35.1 °F 26.4 °F 24.4 °F 65% 29.88 in 10.0 mi SSW 12.7 mph 19.6 mph N/A   Clear
3:15 PM 35.1 °F 25.5 °F 23.9 °F 64% 29.87 in 10.0 mi SSW 15.0 mph 21.9 mph N/A   Clear
3:35 PM 34.0 °F 23.0 °F 23.9 °F 67% 29.85 in 10.0 mi SSW 18.4 mph 26.5 mph N/A   Clear
3:55 PM 33.8 °F 23.2 °F 24.6 °F 69% 29.84 in 10.0 mi SSW 17.3 mph - N/A   Clear
4:15 PM 33.8 °F 23.9 °F 24.8 °F 70% 29.81 in 10.0 mi SSW 15.0 mph 24.2 mph N/A   Clear
4:35 PM 33.8 °F 23.9 °F 24.8 °F 70% 29.82 in 10.0 mi SSW 15.0 mph 23.0 mph N/A   Clear
4:55 PM 34.0 °F 24.2 °F 24.6 °F 69% 29.82 in 10.0 mi SSW 15.0 mph 25.3 mph N/A   Clear
5:15 PM 33.8 °F 24.3 °F 24.8 °F 70% 29.80 in 10.0 mi SSW 13.8 mph 20.7 mph N/A   Clear
5:35 PM 34.0 °F 24.6 °F 25.2 °F 70% 29.79 in 10.0 mi SSW 13.8 mph 27.6 mph N/A   Clear
5:55 PM 33.8 °F 23.5 °F 25.3 °F 71% 29.78 in 10.0 mi SSW 16.1 mph 20.7 mph N/A   Clear
6:15 PM 33.8 °F 23.2 °F 25.5 °F 72% 29.76 in 10.0 mi SSW 17.3 mph 24.2 mph N/A   Mostly Cloudy
6:35 PM 34.2 °F 24.0 °F 24.8 °F 69% 29.74 in 10.0 mi SSW 16.1 mph 24.2 mph N/A   Scattered Clouds
6:55 PM 34.7 °F 23.4 °F 23.9 °F 65% 29.73 in 10.0 mi SSW 20.7 mph 25.3 mph N/A   Clear
7:15 PM 34.7 °F 23.7 °F 23.9 °F 65% 29.73 in 10.0 mi SSW 19.6 mph 31.1 mph N/A   Scattered Clouds
7:35 PM 35.4 °F 24.3 °F 23.7 °F 62% 29.72 in 10.0 mi SSW 20.7 mph 27.6 mph N/A   Mostly Cloudy
7:55 PM 36.1 °F 25.0 °F 23.0 °F 59% 29.71 in 10.0 mi SSW 21.9 mph 29.9 mph N/A   Overcast
8:15 PM 36.5 °F 25.4 °F 23.7 °F 60% 29.71 in 10.0 mi SSW 21.9 mph 31.1 mph N/A   Overcast
8:35 PM 37.0 °F 26.4 °F 24.4 °F 60% 29.69 in 10.0 mi SSW 20.7 mph 27.6 mph N/A   Overcast
8:55 PM 37.4 °F 26.6 °F 24.8 °F 60% 29.69 in 10.0 mi SW 21.9 mph 32.2 mph N/A   Scattered Clouds
9:15 PM 37.4 °F 26.4 °F 25.5 °F 62% 29.69 in 10.0 mi SW 23.0 mph 31.1 mph N/A   Mostly Cloudy
9:35 PM 37.0 °F 26.2 °F 25.9 °F 64% 29.69 in 10.0 mi SW 21.9 mph 28.8 mph N/A   Scattered Clouds
9:55 PM 37.4 °F 27.2 °F 26.4 °F 65% 29.68 in 10.0 mi SW 19.6 mph 25.3 mph N/A   Mostly Cloudy
10:15 PM 37.2 °F 27.3 °F 26.6 °F 65% 29.68 in 10.0 mi SW 18.4 mph 25.3 mph N/A   Mostly Cloudy
10:35 PM 36.5 °F 26.3 °F 26.4 °F 67% 29.68 in 10.0 mi SW 18.4 mph 24.2 mph N/A   Mostly Cloudy
10:55 PM 36.0 °F 27.1 °F 26.4 °F 68% 29.68 in 10.0 mi SW 13.8 mph 23.0 mph N/A   Mostly Cloudy
11:15 PM 36.0 °F 26.3 °F 26.6 °F 69% 29.67 in 10.0 mi SW 16.1 mph - N/A   Scattered Clouds
11:35 PM 36.5 °F 27.8 °F 27.0 °F 68% 29.67 in 10.0 mi SW 13.8 mph - N/A   Scattered Clouds
11:55 PM 35.6 °F 28.0 °F 26.8 °F 70% 29.67 in 10.0 mi SW 10.4 mph - N/A   Clear